• In Belarus
  • List of Countries
  • For 7 days
  • Water Temperature
  • Weather Map
  • Weather Widgets
  • user-avatar
    Login

    Hourly Weather Pernik

    Today, 15 October, Tuesday

    Time Temperature Precipitation Wind Pressure Humidity
    00:00 +13°C° 0 mm 0 mps 694 mmHg 61%
    01:00 +13°C° 0 mm 0 mps 694 mmHg 62%
    02:00 +13°C° 0 mm 1 mps 694 mmHg 65%
    03:00 +13°C° 0 mm 1 mps 693 mmHg 66%
    04:00 +11°C° 0 mm 0 mps 693 mmHg 68%
    05:00 +11°C° 0 mm 0 mps 693 mmHg 69%
    06:00 +12°C° 0 mm 0 mps 693 mmHg 67%
    07:00 +13°C° 0 mm 0 mps 693 mmHg 64%
    08:00 +14°C° 0 mm 0 mps 694 mmHg 62%
    09:00 +16°C° 0 mm 0 mps 694 mmHg 54%
    10:00 +20°C° 0 mm 1 mps 694 mmHg 47%
    11:00 +23°C° 0 mm 1 mps 694 mmHg 40%
    12:00 +24°C° 0 mm 1 mps 694 mmHg 36%
    13:00 +25°C° 0 mm 1 mps 694 mmHg 31%
    14:00 +26°C° 0 mm 1 mps 694 mmHg 27%
    15:00 +25°C° 0 mm 1 mps 693 mmHg 30%
    16:00 +24°C° 0 mm 1 mps 692 mmHg 33%
    17:00 +23°C° 0 mm 1 mps 692 mmHg 36%
    18:00 +21°C° 0 mm 1 mps 692 mmHg 39%
    19:00 +19°C° 0 mm 1 mps 692 mmHg 42%
    20:00 +16°C° 0 mm 1 mps 692 mmHg 46%
    21:00 +15°C° 0 mm 1 mps 692 mmHg 47%
    22:00 +15°C° 0 mm 1 mps 692 mmHg 48%
    23:00 +13°C° 0 mm 0 mps 692 mmHg 50%

    Tomorrow, 16 October, Wednesday

    Time Temperature Precipitation Wind Pressure Humidity
    00:00 +12°C° 0 mm 0 mps 692 mmHg 51%
    01:00 +12°C° 0 mm 0 mps 692 mmHg 53%
    02:00 +12°C° 0 mm 0 mps 692 mmHg 54%
    03:00 +11°C° 0 mm 0 mps 691 mmHg 55%
    04:00 +11°C° 0 mm 0 mps 691 mmHg 56%
    05:00 +10°C° 0 mm 0 mps 691 mmHg 57%
    06:00 +11°C° 0 mm 0 mps 691 mmHg 55%
    07:00 +12°C° 0 mm 0 mps 692 mmHg 53%
    08:00 +13°C° 0 mm 0 mps 692 mmHg 51%
    09:00 +16°C° 0 mm 0 mps 692 mmHg 45%
    10:00 +18°C° 0 mm 0 mps 693 mmHg 39%
    11:00 +23°C° 0 mm 1 mps 693 mmHg 32%
    12:00 +24°C° 0 mm 1 mps 693 mmHg 29%
    13:00 +25°C° 0 mm 1 mps 693 mmHg 27%
    14:00 +26°C° 0 mm 1 mps 693 mmHg 24%
    15:00 +24°C° 0 mm 1 mps 693 mmHg 27%
    16:00 +21°C° 0 mm 0 mps 692 mmHg 30%
    17:00 +20°C° 0 mm 0 mps 692 mmHg 34%
    18:00 +20°C° 0 mm 1 mps 692 mmHg 38%
    19:00 +18°C° 0 mm 1 mps 692 mmHg 42%
    20:00 +16°C° 0 mm 1 mps 692 mmHg 46%
    21:00 +15°C° 0 mm 1 mps 692 mmHg 48%
    22:00 +15°C° 0 mm 1 mps 692 mmHg 50%
    23:00 +13°C° 0 mm 0 mps 692 mmHg 52%

    Day after tomorrow, 17 October, Thursday

    Time Temperature Precipitation Wind Pressure Humidity
    00:00 +13°C° 0 mm 0 mps 692 mmHg 54%
    01:00 +12°C° 0 mm 0 mps 692 mmHg 55%
    02:00 +12°C° 0 mm 0 mps 692 mmHg 56%
    03:00 +12°C° 0 mm 0 mps 692 mmHg 57%
    04:00 +11°C° 0 mm 0 mps 692 mmHg 58%
    05:00 +11°C° 0 mm 0 mps 692 mmHg 59%
    06:00 +12°C° 0 mm 0 mps 692 mmHg 58%
    07:00 +13°C° 0 mm 0 mps 692 mmHg 56%
    08:00 +13°C° 0 mm 0 mps 693 mmHg 55%
    09:00 +16°C° 0 mm 0 mps 693 mmHg 48%
    10:00 +18°C° 0 mm 0 mps 694 mmHg 41%
    11:00 +20°C° 0 mm 0 mps 694 mmHg 35%
    12:00 +21°C° 0 mm 0 mps 694 mmHg 32%
    13:00 +24°C° 0 mm 1 mps 694 mmHg 29%
    14:00 +25°C° 0 mm 1 mps 694 mmHg 27%
    15:00 +24°C° 0 mm 1 mps 693 mmHg 30%
    16:00 +23°C° 0 mm 1 mps 693 mmHg 33%
    17:00 +20°C° 0 mm 0 mps 693 mmHg 36%
    18:00 +20°C° 0 mm 1 mps 693 mmHg 39%
    19:00 +19°C° 0 mm 1 mps 693 mmHg 43%
    20:00 +16°C° 0 mm 1 mps 693 mmHg 47%
    21:00 +15°C° 0 mm 1 mps 693 mmHg 49%
    22:00 +15°C° 0 mm 1 mps 693 mmHg 51%
    23:00 +13°C° 0 mm 0 mps 693 mmHg 53%

    18 October, Friday

    Time Temperature Precipitation Wind Pressure Humidity
    00:00 +13°C° 0 mm 0 mps 693 mmHg 54%
    01:00 +12°C° 0 mm 0 mps 692 mmHg 55%
    02:00 +12°C° 0 mm 0 mps 692 mmHg 56%
    03:00 +12°C° 0 mm 0 mps 692 mmHg 57%
    04:00 +11°C° 0 mm 0 mps 692 mmHg 58%
    05:00 +11°C° 0 mm 0 mps 693 mmHg 59%
    06:00 +12°C° 0 mm 0 mps 693 mmHg 58%
    07:00 +13°C° 0 mm 0 mps 693 mmHg 57%
    08:00 +13°C° 0 mm 0 mps 693 mmHg 55%
    09:00 +16°C° 0 mm 0 mps 693 mmHg 49%
    10:00 +18°C° 0 mm 0 mps 694 mmHg 42%
    11:00 +20°C° 0 mm 0 mps 694 mmHg 36%
    12:00 +23°C° 0 mm 1 mps 694 mmHg 34%
    13:00 +24°C° 0 mm 1 mps 694 mmHg 32%
    14:00 +25°C° 0 mm 1 mps 694 mmHg 29%
    15:00 +24°C° 0 mm 1 mps 693 mmHg 33%
    16:00 +23°C° 0 mm 1 mps 693 mmHg 36%
    17:00 +22°C° 0 mm 1 mps 693 mmHg 39%
    18:00 +20°C° 0 mm 1 mps 693 mmHg 43%
    19:00 +18°C° 0 mm 1 mps 692 mmHg 47%
    20:00 +16°C° 0 mm 1 mps 692 mmHg 51%
    21:00 +15°C° 0 mm 1 mps 692 mmHg 53%
    22:00 +15°C° 0 mm 1 mps 692 mmHg 56%
    23:00 +13°C° 0 mm 0 mps 692 mmHg 58%

    19 October, Saturday

    Time Temperature Precipitation Wind Pressure Humidity
    00:00 +13°C° 0 mm 0 mps 692 mmHg 59%
    01:00 +12°C° 0 mm 0 mps 692 mmHg 60%
    02:00 +12°C° 0 mm 0 mps 692 mmHg 62%
    03:00 +12°C° 0 mm 0 mps 692 mmHg 63%
    04:00 +11°C° 0 mm 0 mps 692 mmHg 64%
    05:00 +11°C° 0 mm 0 mps 692 mmHg 65%
    06:00 +12°C° 0 mm 0 mps 692 mmHg 63%
    07:00 +13°C° 0 mm 0 mps 692 mmHg 61%
    08:00 +13°C° 0 mm 0 mps 693 mmHg 59%
    09:00 +16°C° 0 mm 0 mps 693 mmHg 53%
    10:00 +18°C° 0 mm 0 mps 694 mmHg 47%
    11:00 +22°C° 0 mm 1 mps 694 mmHg 40%
    12:00 +23°C° 0 mm 1 mps 694 mmHg 38%
    13:00 +24°C° 0 mm 1 mps 694 mmHg 35%
    14:00 +25°C° 0 mm 1 mps 693 mmHg 33%
    15:00 +24°C° 0 mm 1 mps 693 mmHg 36%
    16:00 +23°C° 0 mm 1 mps 693 mmHg 39%
    17:00 +22°C° 0 mm 1 mps 693 mmHg 42%
    18:00 +20°C° 0 mm 1 mps 693 mmHg 45%
    19:00 +19°C° 0 mm 1 mps 692 mmHg 49%
    20:00 +16°C° 0 mm 1 mps 692 mmHg 53%
    21:00 +15°C° 0 mm 1 mps 692 mmHg 54%
    22:00 +15°C° 0 mm 1 mps 693 mmHg 56%
    23:00 +14°C° 0 mm 1 mps 693 mmHg 57%

    20 October, Sunday

    Time Temperature Precipitation Wind Pressure Humidity
    00:00 +14°C° 0 mm 1 mps 693 mmHg 59%
    01:00 +14°C° 0 mm 1 mps 692 mmHg 60%
    02:00 +13°C° 0 mm 1 mps 692 mmHg 62%
    03:00 +13°C° 0 mm 1 mps 692 mmHg 63%
    04:00 +13°C° 0 mm 1 mps 692 mmHg 65%
    05:00 +12°C° 0 mm 1 mps 692 mmHg 66%
    06:00 +12°C° 0 mm 0 mps 692 mmHg 65%
    07:00 +13°C° 0 mm 0 mps 693 mmHg 63%
    08:00 +13°C° 0 mm 0 mps 693 mmHg 61%
    09:00 +15°C° 0 mm 0 mps 694 mmHg 54%
    10:00 +20°C° 0 mm 1 mps 694 mmHg 48%
    11:00 +22°C° 0 mm 1 mps 695 mmHg 41%
    12:00 +23°C° 0 mm 1 mps 694 mmHg 38%
    13:00 +24°C° 0 mm 1 mps 694 mmHg 35%
    14:00 +25°C° 0 mm 2 mps 694 mmHg 31%
    15:00 +24°C° 0 mm 1 mps 694 mmHg 34%
    16:00 +23°C° 0 mm 1 mps 694 mmHg 37%
    17:00 +22°C° 0 mm 1 mps 693 mmHg 40%
    18:00 +20°C° 0 mm 1 mps 693 mmHg 44%
    19:00 +19°C° 0 mm 1 mps 693 mmHg 48%
    20:00 +16°C° 0 mm 1 mps 694 mmHg 52%
    21:00 +15°C° 0 mm 1 mps 694 mmHg 54%
    22:00 +15°C° 0 mm 1 mps 694 mmHg 56%
    23:00 +14°C° 0 mm 1 mps 694 mmHg 58%
    Show more